GW6037 Weather Reports


Display with metric or nautical units.
time (UTC)temp
F
wind
direction
speed
MPH
gust
MPH
rain 1hr
in
rain 24hr
in
rain mn
in
humidity
%
barometer
mb
20260505031604 77 0 0.0 0.0 0.00 0.00 0.00 91 1018.8
20260505030105 77 0 0.0 1.0 0.00 0.00 0.00 91 1018.9
20260505024555 78 0 0.0 2.0 0.00 0.00 0.00 90 1018.9
20260505023057 78 0 0.0 2.0 0.00 0.00 0.00 90 1018.8
20260505021552 78 0 0.0 2.0 0.00 0.00 0.00 89 1018.7
20260505020056 78 0 0.0 0.0 0.00 0.00 0.00 89 1018.6
20260505014551 79 0 0.0 0.0 0.00 0.00 0.00 88 1018.5
20260505013053 79 0 0.0 0.0 0.00 0.00 0.00 88 1018.4
20260505011555 79 0 0.0 0.0 0.00 0.00 0.00 87 1018.3
20260505010058 80 188 1.0 3.0 0.00 0.00 0.00 87 1018.1
20260505004550 80 174 1.0 2.0 0.00 0.00 0.00 86 1018.0
20260505003051 81 278 0.0 4.0 0.00 0.00 0.00 84 1017.8
20260505001550 82 13 2.0 4.0 0.00 0.00 0.00 83 1017.6
20260504234552 82 98 1.0 4.0 0.00 0.00 0.00 82 1017.6
20260504233054 82 348 0.0 3.0 0.00 0.00 0.00 82 1017.5
20260504231551 82 98 1.0 5.0 0.00 0.00 0.00 82 1017.3
20260504230056 82 0 0.0 4.0 0.00 0.00 0.00 81 1017.3
20260504224602 83 281 1.0 4.0 0.00 0.00 0.00 80 1017.1
20260504223057 83 360 4.0 9.0 0.00 0.00 0.00 79 1017.1
20260504221555 83 9 5.0 10.0 0.00 0.00 0.00 79 1016.8
20260504220118 84 333 4.0 9.0 0.00 0.00 0.00 78 1016.7
20260504214559 84 49 6.0 10.0 0.00 0.00 0.00 77 1016.5
20260504213101 84 19 6.0 12.0 0.00 0.00 0.00 77 1016.3
20260504211554 85 360 7.0 12.0 0.00 0.00 0.00 77 1016.3
20260504210054 84 13 9.0 14.0 0.00 0.00 0.00 78 1016.3
20260504204553 85 38 6.0 11.0 0.00 0.00 0.00 77 1016.3
20260504203051 85 18 8.0 13.0 0.00 0.00 0.00 77 1016.2
20260504201553 85 21 7.0 12.0 0.00 0.00 0.00 77 1016.3
20260504200100 85 21 7.0 12.0 0.00 0.00 0.00 76 1016.3
20260504194553 84 339 7.0 13.0 0.00 0.00 0.00 76 1016.3
20260504193054 85 12 8.0 13.0 0.00 0.00 0.00 76 1016.4
20260504191559 85 329 8.0 12.0 0.00 0.00 0.00 75 1016.4
20260504190107 85 360 9.0 13.0 0.00 0.00 0.00 75 1016.4
20260504184610 86 330 6.0 12.0 0.00 0.00 0.00 68 1016.5
20260504183052 86 11 8.0 12.0 0.00 0.00 0.00 71 1016.6
20260504181550 86 315 7.0 16.0 0.00 0.00 0.00 69 1016.8
20260504180051 86 19 9.0 14.0 0.00 0.00 0.00 72 1017.0
20260504174552 86 340 7.0 11.0 0.00 0.00 0.00 73 1017.1
20260504173056 86 19 6.0 13.0 0.00 0.00 0.00 74 1017.3
20260504171550 86 341 6.0 14.0 0.00 0.00 0.00 74 1017.6
20260504170109 84 304 9.0 14.0 0.00 0.00 0.00 75 1017.6
20260504081552 72 105 1.0 4.0 0.00 0.00 0.00 86 1017.3
20260504044553 75 117 2.0 2.0 0.00 0.00 0.00 82 1018.2
20260504043055 75 179 2.0 4.0 0.00 0.00 0.00 82 1018.5
20260504041554 76 146 2.0 3.0 0.00 0.00 0.00 82 1018.7
20260504040106 76 113 0.0 3.0 0.00 0.00 0.00 82 1018.8
20260504034559 76 95 2.0 4.0 0.00 0.00 0.00 81 1018.9
20260504033126 76 92 2.0 6.0 0.00 0.00 0.00 82 1019.1